DW0479 Weather Reports


Display with metric or nautical units.
time (UTC)temp
F
wind
direction
speed
MPH
gust
MPH
rain 1hr
in
rain 24hr
in
rain mn
in
humidity
%
barometer
mb
20260901224524 84 97 1.0 6.0 0.00 0.15 0.15 80 1015.4
20260901224010 84 90 2.0 4.0 0.00 0.15 0.15 79 1015.2
20260901222511 85 90 3.0 7.0 0.00 0.15 0.15 78 1015.2
20260901221510 85 79 2.0 7.0 0.00 0.15 0.15 77 1015.1
20260901220508 85 97 3.0 9.0 0.00 0.15 0.15 77 1015.0
20260901220002 86 113 3.0 7.0 0.00 0.15 0.15 77 1014.9
20260901214505 87 78 4.0 8.0 0.00 0.15 0.15 77 1014.9
20260901213505 87 71 4.0 10.0 0.00 0.15 0.15 76 1014.8
20260901213414 88 55 4.0 11.0 0.00 0.15 0.15 74 1014.6
20260901211458 89 45 4.0 11.0 0.00 0.15 0.15 75 1014.5
20260901210455 89 63 5.0 10.0 0.00 0.15 0.15 73 1014.7
20260901205454 89 43 5.0 10.0 0.00 0.15 0.15 73 1015.0
20260901204454 90 90 5.0 11.0 0.00 0.16 0.15 71 1014.8
20260901203445 90 15 6.0 13.0 0.00 0.17 0.15 72 1014.8
20260901202922 91 67 7.0 13.0 0.00 0.17 0.15 72 1015.0
20260901201434 91 5 8.0 17.0 0.01 0.18 0.15 73 1015.0
20260901200432 91 27 7.0 15.0 0.01 0.18 0.15 71 1015.0
20260901195426 90 25 6.0 11.0 0.01 0.19 0.15 74 1015.1
20260901194426 90 60 6.0 12.0 0.01 0.20 0.15 74 1015.2
20260901193420 90 44 6.0 14.0 0.01 0.21 0.15 73 1015.2
20260901192420 90 54 7.0 14.0 0.01 0.22 0.15 73 1015.2
20260901191855 90 25 5.0 10.0 0.00 0.22 0.14 73 1015.1
20260901190852 90 43 5.0 11.0 0.00 0.24 0.14 69 1015.5
20260901185409 88 10 6.0 12.0 0.00 0.29 0.14 74 1015.6
20260901184846 88 27 4.0 10.0 0.00 0.39 0.14 81 1015.9
20260901183405 87 59 5.0 10.0 0.00 0.42 0.14 80 1016.0
20260901182402 87 10 7.0 13.0 0.00 0.42 0.14 81 1016.2
20260901181402 86 1 9.0 17.0 0.00 0.42 0.14 81 1016.1
20260901180401 87 5 5.0 10.0 0.00 0.42 0.14 80 1016.3
20260901175357 86 346 2.0 6.0 0.00 0.42 0.14 82 1016.3
20260901174353 85 317 1.0 4.0 0.00 0.42 0.14 84 1016.3
20260901173354 85 317 1.0 4.0 0.00 0.42 0.14 86 1016.5
20260901172345 85 318 0.0 3.0 0.00 0.42 0.14 87 1016.6
20260901171836 84 318 1.0 4.0 0.00 0.42 0.14 87 1016.7
20260901170345 83 319 1.0 3.0 0.00 0.42 0.14 88 1016.9
20260901165827 83 320 0.0 2.0 0.00 0.42 0.14 90 1017.0
20260901164334 81 320 0.0 1.0 0.00 0.42 0.14 89 1017.0
20260901163332 81 320 0.0 4.0 0.00 0.42 0.14 91 1017.1
20260901162329 82 22 1.0 4.0 0.00 0.42 0.14 91 1017.2
20260901161328 81 29 0.0 0.0 0.01 0.42 0.14 91 1017.2
20260901161248 80 29 1.0 4.0 0.12 0.42 0.14 90 1017.2
20260901155312 82 19 2.0 4.0 0.12 0.42 0.14 91 1017.4
20260901154749 82 5 0.0 3.0 0.14 0.42 0.14 91 1017.4
20260901153308 82 5 1.0 3.0 0.14 0.42 0.14 90 1017.2
20260901152307 82 5 1.0 4.0 0.14 0.42 0.14 92 1017.3
20260901151741 82 5 3.0 8.0 0.13 0.41 0.13 91 1017.3
20260901150258 83 320 2.0 6.0 0.02 0.30 0.02 91 1017.2
20260901145255 83 329 4.0 8.0 0.02 0.30 0.02 89 1017.1
20260901144246 84 346 4.0 8.0 0.00 0.28 0.00 89 1017.0
20260901143725 84 319 3.0 5.0 0.00 0.28 0.00 89 1016.9
20260901142235 84 352 1.0 4.0 0.00 0.28 0.00 88 1016.9
20260901141237 84 352 2.0 4.0 0.00 0.28 0.00 86 1016.9
20260901140719 84 352 0.0 1.0 0.00 0.28 0.00 89 1016.8
20260901135216 83 352 1.0 3.0 0.00 0.28 0.00 89 1016.8
20260901134213 83 352 2.0 5.0 0.00 0.28 0.00 89 1016.8
20260901133658 83 358 2.0 4.0 0.00 0.28 0.00 90 1016.6
20260901132210 83 358 2.0 4.0 0.00 0.28 0.00 92 1016.7
20260901131210 83 356 2.0 5.0 0.00 0.28 0.00 93 1016.7
20260901130154 82 350 1.0 4.0 0.00 0.28 0.00 94 1016.5
20260901125145 81 350 2.0 4.0 0.00 0.28 0.00 95 1016.5
20260901124147 80 350 1.0 3.0 0.00 0.28 0.00 95 1016.6
20260901123145 80 350 1.0 4.0 0.00 0.28 0.00 95 1016.5
20260901122143 80 350 2.0 3.0 0.00 0.28 0.00 95 1016.4
20260901121132 79 350 1.0 3.0 0.00 0.28 0.00 95 1016.3
20260901120134 79 348 0.0 3.0 0.00 0.28 0.00 95 1016.2
20260901115133 78 348 2.0 5.0 0.00 0.28 0.00 95 1016.2
20260901114134 78 358 3.0 6.0 0.00 0.28 0.00 95 1016.0
20260901113127 78 28 3.0 5.0 0.00 0.28 0.00 95 1016.0
20260901112550 78 28 2.0 5.0 0.00 0.28 0.00 95 1015.9
20260901111111 78 28 1.0 4.0 0.00 0.28 0.00 95 1015.8
20260901110106 78 28 1.0 3.0 0.00 0.28 0.00 95 1015.8
20260901105052 78 28 1.0 3.0 0.00 0.28 0.00 95 1015.8
20260901104048 78 28 0.0 3.0 0.00 0.28 0.00 95 1015.7
20260901103048 77 28 0.0 2.0 0.00 0.28 0.00 95 1015.7
20260901102048 77 28 2.0 4.0 0.00 0.28 0.00 95 1015.6
20260901101050 76 28 0.0 3.0 0.00 0.28 0.00 95 1015.5
20260901100049 76 28 0.0 0.0 0.00 0.28 0.00 95 1015.3
20260901095042 76 28 0.0 0.0 0.00 0.28 0.00 95 1015.2
20260901094043 76 28 0.0 0.0 0.00 0.28 0.00 95 1015.3
20260901093521 76 28 0.0 0.0 0.00 0.28 0.00 95 1015.3
20260901092042 77 28 0.0 2.0 0.00 0.28 0.00 95 1015.2
20260901091035 77 28 0.0 2.0 0.00 0.28 0.00 95 1015.1
20260901090034 77 28 0.0 1.0 0.00 0.28 0.00 95 1015.1
20260901085509 77 28 0.0 1.0 0.00 0.28 0.00 95 1015.1
20260901084035 77 28 0.0 2.0 0.00 0.28 0.00 95 1015.0
20260901083025 77 28 1.0 3.0 0.00 0.28 0.00 95 1015.0
20260901082510 77 28 2.0 3.0 0.00 0.28 0.00 95 1014.9
20260901081025 76 28 0.0 2.0 0.00 0.28 0.00 95 1014.9
20260901080028 77 28 1.0 2.0 0.00 0.28 0.00 95 1015.2
20260901075015 76 28 1.0 3.0 0.00 0.28 0.00 95 1015.2
20260901074014 76 28 0.0 2.0 0.00 0.28 0.00 95 1015.2
20260901073012 76 28 0.0 1.0 0.00 0.28 0.00 95 1015.2
20260901072931 77 28 0.0 1.0 0.00 0.28 0.00 95 1015.3
20260901071010 76 28 0.0 0.0 0.00 0.28 0.00 95 1015.6
20260901070012 77 28 0.0 0.0 0.00 0.28 0.00 95 1015.8
20260901065009 77 28 0.0 1.0 0.00 0.28 0.00 95 1015.7
20260901064007 77 28 1.0 4.0 0.00 0.28 0.00 95 1015.8
20260901062959 78 28 2.0 4.0 0.00 0.28 0.00 95 1016.1
20260901062928 77 28 1.0 3.0 0.00 0.28 0.00 95 1016.2
20260901061921 78 28 2.0 3.0 0.00 0.28 0.00 95 1016.5
20260901060001 78 28 1.0 4.0 0.00 0.28 0.00 95 1016.5
20260901055938 77 28 0.0 2.0 0.00 0.28 0.00 95 1016.8
20260901053959 77 28 0.0 0.0 0.00 0.28 0.00 94 1016.7
20260901052959 77 28 0.0 1.0 0.00 0.28 0.00 94 1017.0
20260901051957 78 28 0.0 0.0 0.00 0.28 0.00 95 1017.0
20260901051000 78 28 0.0 0.0 0.00 0.28 0.00 94 1017.0
20260901045959 78 28 0.0 0.0 0.00 0.28 0.00 94 1017.1
20260901044957 78 28 1.0 3.0 0.00 0.28 0.00 95 1017.3
20260901043958 78 28 0.0 2.0 0.00 0.28 0.00 94 1017.1
20260901043914 78 28 0.0 0.0 0.00 0.28 0.00 94 1017.0
20260901041954 78 28 0.0 3.0 0.00 0.28 0.00 94 1017.1
20260901040941 78 28 1.0 4.0 0.00 0.28 0.00 94 1017.1
20260901035938 78 28 0.0 0.0 0.00 0.28 0.28 94 1017.2
20260901034938 78 28 0.0 1.0 0.00 0.28 0.28 94 1017.1
20260901034425 78 28 0.0 0.0 0.00 0.28 0.28 94 1017.2
20260901032936 78 28 0.0 0.0 0.00 0.28 0.28 94 1017.2
20260901031936 78 28 0.0 1.0 0.00 0.28 0.28 94 1017.3
20260901030937 78 28 1.0 3.0 0.00 0.28 0.28 94 1017.4
20260901025936 78 28 0.0 3.0 0.00 0.28 0.28 94 1017.3
20260901024935 78 28 1.0 3.0 0.00 0.28 0.28 94 1017.2
20260901023936 78 28 0.0 2.0 0.00 0.28 0.28 94 1017.2
20260901022937 78 28 0.0 0.0 0.00 0.28 0.28 94 1017.1
20260901021940 78 28 0.0 1.0 0.00 0.28 0.28 94 1016.9
20260901020920 78 28 0.0 0.0 0.00 0.28 0.28 94 1016.9
20260901015917 79 28 0.0 2.0 0.00 0.28 0.28 94 1016.9
20260901015347 78 28 0.0 2.0 0.00 0.28 0.28 94 1016.7
20260901013858 78 28 0.0 0.0 0.00 0.28 0.28 94 1016.6
20260901012838 78 28 0.0 0.0 0.00 0.28 0.28 94 1016.6
20260901011835 78 28 0.0 0.0 0.00 0.28 0.28 94 1016.6
20260901010818 78 28 0.0 0.0 0.00 0.28 0.28 94 1016.5
20260901005753 79 28 0.0 1.0 0.00 0.28 0.28 94 1016.3
20260901004737 79 28 0.0 0.0 0.00 0.28 0.28 94 1016.3
20260901003735 79 28 0.0 0.0 0.00 0.28 0.28 94 1016.3
20260901002729 79 28 0.0 0.0 0.00 0.28 0.28 93 1016.4
20260901001719 79 28 0.0 0.0 0.00 0.28 0.28 93 1016.3
20260901000637 79 28 0.0 2.0 0.00 0.28 0.28 93 1016.3
20260901000112 79 28 0.0 0.0 0.00 0.28 0.28 93 1016.4
20260831234628 79 28 0.0 0.0 0.00 0.28 0.28 93 1016.2
20260831233622 79 28 0.0 0.0 0.00 0.28 0.28 93 1016.0
20260831232621 79 28 0.0 0.0 0.00 0.28 0.28 93 1016.0
20260831231617 79 28 0.0 0.0 0.00 0.28 0.28 92 1016.0
20260831230603 79 28 0.0 1.0 0.00 0.28 0.28 92 1016.0
20260831225550 79 28 1.0 4.0 0.00 0.28 0.28 91 1016.1